Location: Kielce
(50.8833°N, 20.6167°E)
Time: 02:12:28
(UTC+01:00)

Envisat - Visible Passes

Search period start: 07 December 2019 00:00
Search period end: 17 December 2019 00:00
Orbit: 764 x 766 km, 98.1° (Epoch: 06 December)

Date Brightness Start Highest point End Pass type
(mag) Time Alt. Az. Time Alt. Az. Time Alt. Az.
07 Dec 4.8 05:51:28 10° NNE 05:56:06 34° E 06:00:42 10° SSE visible
07 Dec 2.9 17:10:45 10° SSE 17:15:49 73° ENE 17:20:55 10° N visible
07 Dec 5.6 18:51:54 10° SW 18:55:24 18° W 18:58:55 10° NW visible
08 Dec 5.9 05:15:32 10° NE 05:18:56 18° E 05:22:20 10° SE visible
08 Dec 3.4 16:34:32 10° SE 16:39:11 38° ENE 16:43:53 10° N visible
08 Dec 4.5 18:13:36 10° SSW 18:18:15 36° W 18:22:56 10° NNW visible
09 Dec 3.8 06:16:43 10° NNE 06:21:44 56° E 06:26:43 10° S visible
09 Dec 3.2 17:36:15 10° S 17:41:19 71° WSW 17:46:25 10° NNW visible
09 Dec 6.2 19:19:51 10° W 19:21:17 11° W 19:22:43 10° WNW visible
10 Dec 5.2 05:40:20 10° NE 05:44:44 28° E 05:49:05 10° SSE visible
10 Dec 3.0 16:59:34 10° SSE 17:04:33 60° ENE 17:09:35 10° N visible
10 Dec 5.3 18:40:03 10° SW 18:43:59 22° W 18:47:58 10° NW visible
11 Dec 6.0 05:04:45 10° NE 05:07:30 14° E 05:10:15 10° ESE visible
11 Dec 3.1 06:42:09 10° NNE 06:47:17 89° ESE 06:52:22 10° SSW visible
11 Dec 3.7 16:23:32 10° SE 16:28:00 32° ENE 16:32:28 10° N visible
11 Dec 4.2 18:02:04 10° S 18:06:54 44° W 18:11:46 10° NNW visible
12 Dec 4.2 06:05:31 10° NNE 06:10:25 45° E 06:15:16 10° S visible
12 Dec 3.0 17:24:56 10° SSE 17:30:01 86° WSW 17:35:09 10° NNW visible
12 Dec 6.0 19:07:14 10° WSW 19:09:50 14° W 19:12:25 10° NW visible
13 Dec 5.5 05:29:17 10° NE 05:33:20 23° E 05:37:22 10° SE visible
13 Dec 3.2 16:48:26 10° SE 16:53:19 49° ENE 16:58:14 10° N visible
13 Dec 5.0 18:28:18 10° SSW 18:32:35 27° W 18:36:55 10° NW visible
14 Dec 6.2 04:54:19 10° ENE 04:56:03 12° E 04:57:47 10° ESE visible
14 Dec 3.3 06:30:53 10° NNE 06:35:59 74° ESE 06:41:04 10° S visible
14 Dec 3.9 16:12:36 10° ESE 16:16:49 27° ENE 16:21:02 10° N visible
14 Dec 3.8 17:50:36 10° S 17:55:34 53° W 18:00:34 10° NNW visible
15 Dec 4.6 05:54:20 10° NNE 05:59:03 37° E 06:03:45 10° SSE visible
15 Dec 2.9 17:13:40 10° SSE 17:18:44 79° ENE 17:23:51 10° NNW visible
15 Dec 5.7 18:55:06 10° SW 18:58:23 17° W 19:01:41 10° NW visible
16 Dec 5.8 05:18:18 10° NE 05:21:56 19° E 05:25:31 10° SE visible
16 Dec 3.4 16:37:22 10° SE 16:42:06 41° ENE 16:46:51 10° N visible
16 Dec 4.7 18:16:39 10° SSW 18:21:12 33° W 18:25:49 10° NNW visible
